sat.trackr.live / text

‹ back to catalog

IRIDIUM 112

NORAD 41925 · 2017-003J

PAYLOAD ACTIVE UNKNOWN

§ Identity

Operator
Country
US
Launch date
2017-01-14
Launch site
AFWTR
Launch vehicle
Mass (kg)
RCS (m²)
2.65

Purposes: comms

External: N2YO · Heavens-Above · Gunter

§ Orbital elements

Epoch: 2026-09-12T23:19:50.481120Z

Period
100.40 min
Inclination
86.3935°
Eccentricity
0.0002181
Mean motion
14.34217757 rev/d
Perigee alt
776.1 km
Apogee alt
779.2 km
Semi-major
7,155.8 km
B*
2.1325e-5
RAAN
51.5708°
Arg perigee
93.4167°
Mean anomaly
266.7278°
Rev number
50,585

§ Raw data

IRIDIUM 1121 41925U 17003J   26255.97211205  .00000080  00000+0  21325-4 0  99932 41925  86.3935  51.5708 0002181  93.4167 266.7278 14.34217757505857

JSON: /api/v1/satellites/41925 · /tle

For live sub-satellite position, see the globe view (requires WebGL).

§ Visibility from observer

Set your observer location to see the next 7 days of passes ≥ 10°. The values pass through the URL so the page stays shareable.

No JS? Fill the form by hand. The geolocation button needs JavaScript.